TimeEST,TemperatureF,Dew PointF,Humidity,Sea Level PressureIn,VisibilityMPH,Wind Direction,Wind SpeedMPH,Gust SpeedMPH,PrecipitationIn,Events,Conditions,WindDirDegrees,DateUTC
12:53 AM,73.0,71.1,93,30.06,10.0,Calm,Calm,-,N/A,,Clear,0,2012-12-13 05:53:00
1:53 AM,73.0,71.1,93,30.06,10.0,WNW,3.5,-,N/A,,Partly Cloudy,300,2012-12-13 06:53:00
2:53 AM,73.0,70.0,90,30.05,10.0,Calm,Calm,-,N/A,,Partly Cloudy,0,2012-12-13 07:53:00
3:53 AM,71.1,70.0,96,30.04,10.0,Calm,Calm,-,N/A,,Clear,0,2012-12-13 08:53:00
4:53 AM,70.0,69.1,97,30.04,10.0,Calm,Calm,-,N/A,,Clear,0,2012-12-13 09:53:00
5:53 AM,70.0,70.0,100,30.06,10.0,Calm,Calm,-,N/A,,Clear,0,2012-12-13 10:53:00
6:53 AM,70.0,69.1,97,30.07,10.0,WNW,3.5,-,N/A,,Clear,290,2012-12-13 11:53:00
7:53 AM,72.0,71.1,97,30.09,10.0,Calm,Calm,-,N/A,,Partly Cloudy,0,2012-12-13 12:53:00
8:53 AM,77.0,73.0,88,30.10,10.0,SW,4.6,-,N/A,,Clear,220,2012-12-13 13:53:00
9:53 AM,80.1,72.0,76,30.10,10.0,West,10.4,-,N/A,,Mostly Cloudy,270,2012-12-13 14:53:00
10:03 AM,78.8,71.6,78,30.10,10.0,West,10.4,-,N/A,,Scattered Clouds,280,2012-12-13 15:03:00
10:53 AM,79.0,70.0,74,30.10,10.0,West,11.5,-,N/A,,Overcast,270,2012-12-13 15:53:00
11:01 AM,78.8,69.8,74,30.10,10.0,WNW,9.2,-,N/A,,Mostly Cloudy,290,2012-12-13 16:01:00
11:28 AM,78.8,71.6,78,30.10,10.0,NW,15.0,-,N/A,,Mostly Cloudy,320,2012-12-13 16:28:00
11:53 AM,78.1,71.1,79,30.10,10.0,NNW,13.8,-,N/A,,Overcast,330,2012-12-13 16:53:00
12:18 PM,77.0,69.8,78,30.09,10.0,NNW,12.7,-,N/A,,Overcast,340,2012-12-13 17:18:00
12:53 PM,77.0,69.1,76,30.07,10.0,NNW,15.0,-,N/A,,Mostly Cloudy,330,2012-12-13 17:53:00
1:03 PM,78.8,69.8,74,30.07,10.0,NNW,15.0,-,N/A,,Scattered Clouds,340,2012-12-13 18:03:00
1:15 PM,77.0,69.8,78,30.07,10.0,North,15.0,-,N/A,,Mostly Cloudy,360,2012-12-13 18:15:00
1:40 PM,75.2,69.8,83,30.06,10.0,NNW,13.8,-,N/A,,Overcast,330,2012-12-13 18:40:00
1:53 PM,75.0,69.1,82,30.07,10.0,North,10.4,-,N/A,,Overcast,350,2012-12-13 18:53:00
2:25 PM,73.4,68.0,83,30.07,10.0,North,10.4,-,N/A,,Overcast,360,2012-12-13 19:25:00
2:53 PM,72.0,68.0,87,30.07,10.0,North,10.4,-,N/A,,Overcast,350,2012-12-13 19:53:00
3:14 PM,73.4,66.2,78,30.07,10.0,North,13.8,17.3,N/A,,Overcast,360,2012-12-13 20:14:00
3:53 PM,72.0,66.0,81,30.07,10.0,North,10.4,-,N/A,,Overcast,350,2012-12-13 20:53:00
7:53 PM,71.6,64.4,78,30.10,10.0,North,12.7,-,N/A,,Overcast,10,2012-12-14 00:53:00
8:53 PM,70.0,64.0,81,30.10,10.0,North,10.4,-,N/A,,Overcast,360,2012-12-14 01:53:00
9:53 PM,68.0,63.0,84,30.11,10.0,NNW,10.4,-,N/A,,Mostly Cloudy,330,2012-12-14 02:53:00
10:53 PM,66.9,63.0,87,30.11,10.0,NNW,9.2,-,N/A,,Overcast,340,2012-12-14 03:53:00
11:53 PM,64.9,62.1,90,30.10,10.0,North,10.4,-,N/A,,Overcast,350,2012-12-14 04:53:00